Location: Unspecified
(53.5511°N, 9.9937°E)
Time: 00:54:21
(UTC+00:00)

ISS - Visible Passes

Search period start: 19 November 2019 00:00
Search period end: 29 November 2019 00:00
Orbit: 412 x 421 km, 51.6° (Epoch: 19 November)

Date Brightness Start Highest point End Pass type
(mag) Time Alt. Az. Time Alt. Az. Time Alt. Az.
23 Nov -0.7 18:16:26 10° SW 18:16:38 11° SSW 18:16:38 11° SSW visible
24 Nov -1.8 17:28:29 10° SSW 17:30:19 20° S 17:30:19 20° S visible
25 Nov -1.7 16:40:47 10° S 16:42:52 16° SE 16:43:56 14° ESE visible
25 Nov -1.1 18:15:49 10° SW 18:16:51 18° SW 18:16:51 18° SW visible
26 Nov -1.2 15:53:46 10° SSE 15:54:41 11° SE 15:55:34 10° ESE visible
26 Nov -2.7 17:27:35 10° SW 17:30:24 35° S 17:30:24 35° S visible
27 Nov -2.3 16:39:28 10° SSW 16:42:22 27° SSE 16:43:54 19° ESE visible
27 Nov -1.3 18:15:27 10° WSW 18:16:48 22° WSW 18:16:48 22° WSW visible
28 Nov -1.8 15:51:31 10° SSW 15:54:05 20° SSE 15:56:39 10° E visible
28 Nov -3.3 17:27:04 10° WSW 17:30:16 52° S 17:30:16 52° S visible
